Location: Altmatt
(47.1333°N, 8.7000°E)
Time: 17:57:28
(UTC+00:00)

Cosmos 2154 Rocket - Pass Details

Date: 13 July 2020
Orbit: 967 x 995 km, 82.9° (Epoch: 12 August)

Event Time Altitude Azimuth Distance (km) Brightness Sun altitude
Exits shadow 21:26:34 11° 195° (SSW) 2,644 5.9 -15.7°
Maximum altitude 21:32:35 74° 280° (W) 1,014 4.2 -16.2°
Drops below altitude 10° 21:38:51 10° 6° (N) 2,734 7.2 -16.7°
Sets 21:41:24 0° 8° (N) 3,690 8.0 -16.9°
